This demonstration page uses our WeatherBlox Daily Observations layout. Learn more.

Left ArrowRight Arrow

Hourly Observations for November 16, 2021

Temp ( °F °C ) Dew Point ( °F °C ) Humidity (%) Winds ( mph kmh ) Pressure ( in mb ) Visibility ( mi km ) Precip ( " mm )
12:53 am 00:53 Clear 38 3.3 35 1.7 89 89 Calm 30.18 1022 10 16 0.00 0.00
1:53 am 01:53 Clear 39 3.9 36 2.2 89 89 Calm 30.17 1022 10 16 0.00 0.00
2:53 am 02:53 Clear 37 2.8 35 1.7 93 93 Calm 30.18 1022 10 16 0.00 0.00
3:53 am 03:53 Clear 37 2.8 35 1.7 93 93 Calm 30.19 1022 10 16 0.00 0.00
4:53 am 04:53 Cloudy 39 3.9 38 3.3 96 96 Calm 30.21 1023 10 16 0.00 0.00
5:53 am 05:53 Mostly Cloudy 40 4.4 38 3.3 93 93 Calm 30.22 1023 10 16 0.00 0.00
6:53 am 06:53 Mostly Clear 41 5 38 3.3 89 89 Calm 30.22 1024 10 16 0.00 0.00
7:53 am 07:53 Sunny 42 5.6 39 3.9 89 89 Calm 30.23 1024 10 16 0.00 0.00
8:53 am 08:53 Sunny 47 8.3 40 4.4 77 77 Calm 30.24 1024 10 16 0.00 0.00
9:53 am 09:53 Sunny 55 12.8 42 5.6 62 62 WSW 3 6 30.25 1024 10 16 0.00 0.00
10:53 am 10:53 Mostly Cloudy 62 16.7 46 7.8 56 56 Calm 30.24 1024 10 16 0.00 0.00
11:53 am 11:53 Mostly Sunny 67 19.4 51 10.6 57 57 SSW 6 9 30.22 1023 10 16 0.00 0.00
12:53 pm 12:53 Cloudy 69 20.6 54 12.2 59 59 SW 9 15 30.19 1022 10 16 0.00 0.00
1:53 pm 13:53 Partly Cloudy 71 21.7 54 12.2 55 55 WSW 7 11 30.15 1021 10 16 0.00 0.00
2:53 pm 14:53 Mostly Cloudy 71 21.7 53 11.7 53 53 VRB 6 9 30.15 1021 10 16 0.00 0.00
3:53 pm 15:53 Sunny 71 21.7 53 11.7 53 53 S 6 9 30.15 1021 10 16 0.00 0.00
4:53 pm 16:53 Sunny 70 21.1 53 11.7 55 55 S 5 7 30.15 1021 10 16 0.00 0.00
5:53 pm 17:53 Clear 65 18.3 53 11.7 66 66 SSE 5 7 30.16 1021 10 16 0.00 0.00
6:53 pm 18:53 Clear 59 15 53 11.7 81 81 Calm 30.18 1022 10 16 0.00 0.00
7:53 pm 19:53 Clear 56 13.3 53 11.7 90 90 Calm 30.19 1022 10 16 0.00 0.00
8:53 pm 20:53 Clear 55 12.8 52 11.1 90 90 Calm 30.19 1023 10 16 0.00 0.00
9:53 pm 21:53 Clear 52 11.1 50 10 93 93 Calm 30.20 1023 7 11 0.00 0.00
10:53 pm 22:53 Clear with Mist and Fog 50 10 49 9.4 96 96 Calm 30.21 1023 5 8 0.00 0.00
11:41 pm 23:41 Clear with Mist and Fog 49 9.4 48 8.9 97 97 Calm 30.23 1024 2 2 0.00 0.00
11:47 pm 23:47 Clear with Fog 48 9 48 9 100 100 Calm 30.23 1024 1 1 0.00 0.00
11:51 pm 23:51 Clear with Mist and Fog 48 9 48 9 100 100 Calm 30.23 1024 4 6 0.00 0.00
11:53 pm 23:53 Clear with Mist and Fog 49 9.4 48 8.9 97 97 Calm 30.21 1023 4 6 0.00 0.00

Powered by AerisWeather